NK0Z-13 Weather Reports


Display with metric or nautical units.
time (UTC)temp
F
wind
direction
speed
MPH
gust
MPH
rain 1hr
in
rain 24hr
in
rain mn
in
humidity
%
barometer
mb
20260510153937 56 55 10.0 11.0 0.00 0.00 0.00 52 1024.9
20260510152937 57 65 2.0 9.0 0.00 0.00 0.00 51 1024.8
20260510151937 58 78 8.0 14.0 0.00 0.00 0.00 49 1024.4
20260510150936 58 82 3.0 9.0 0.00 0.00 0.00 51 1024.2
20260510145933 57 58 5.0 9.0 0.00 0.00 0.00 52 1024.5
20260510144932 56 81 2.0 6.0 0.00 0.00 0.00 54 1025.1
20260510143931 56 149 1.0 5.0 0.00 0.00 0.00 55 1025.1
20260510142930 56 67 2.0 7.0 0.00 0.00 0.00 56 1025.2
20260510141929 56 87 4.0 9.0 0.00 0.00 0.00 54 1025.1
20260510140923 56 100 3.0 9.0 0.00 0.00 0.00 55 1024.8
20260510135918 55 109 5.0 8.0 0.00 0.00 0.00 56 1024.7
20260510134918 55 14 3.0 8.0 0.00 0.00 0.00 58 1024.4
20260510133916 55 80 6.0 9.0 0.00 0.00 0.00 59 1023.9
20260510132914 55 86 5.0 11.0 0.00 0.00 0.00 61 1023.9
20260510131909 55 85 5.0 5.0 0.00 0.00 0.00 60 1024.0
20260510130908 55 67 3.0 7.0 0.00 0.00 0.00 61 1023.7
20260510125908 55 82 7.0 10.0 0.00 0.00 0.00 62 1023.6
20260510124907 55 89 0.0 10.0 0.00 0.00 0.00 63 1022.8
20260510123906 55 13 3.0 8.0 0.00 0.00 0.00 65 1022.4
20260510122904 55 49 4.0 10.0 0.00 0.00 0.00 67 1022.2
20260510121901 55 62 6.0 8.0 0.00 0.00 0.00 70 1021.8
20260510120856 55 23 5.0 20.0 0.00 0.00 0.00 71 1021.5
20260510115854 55 30 9.0 13.0 0.00 0.00 0.00 73 1021.2
20260510114853 55 351 5.0 16.0 0.00 0.00 0.00 74 1021.1
20260510113851 55 8 6.0 15.0 0.00 0.00 0.00 75 1020.6
20260510112850 55 54 1.0 10.0 0.00 0.00 0.00 76 1020.0
20260510111848 57 0 3.0 10.0 0.00 0.00 0.00 66 1020.0
20260510110845 57 13 3.0 10.0 0.00 0.00 0.00 65 1019.5
20260510105845 57 69 8.0 9.0 0.00 0.00 0.00 66 1019.2
20260510104841 57 69 8.0 16.0 0.00 0.00 0.00 65 1019.4
20260510103840 57 99 5.0 13.0 0.00 0.00 0.00 66 1019.4
20260510102838 57 15 11.0 13.0 0.00 0.00 0.00 68 1019.6
20260510101838 57 1 4.0 11.0 0.00 0.00 0.00 69 1019.3
20260510100838 57 23 6.0 17.0 0.00 0.00 0.00 70 1019.3
20260510095838 57 2 12.0 13.0 0.00 0.00 0.00 71 1019.1
20260510094832 57 16 5.0 22.0 0.00 0.00 0.00 71 1019.1
20260510093830 57 12 6.0 14.0 0.00 0.00 0.00 71 1018.8
20260510092828 57 4 4.0 13.0 0.00 0.00 0.00 72 1019.1
20260510091826 57 359 6.0 14.0 0.00 0.00 0.00 72 1019.1
20260510090825 57 24 4.0 12.0 0.00 0.00 0.00 71 1018.9
20260510085824 57 5 2.0 13.0 0.00 0.00 0.00 72 1018.9
20260510084820 57 4 5.0 10.0 0.00 0.00 0.00 72 1018.3
20260510083820 57 35 5.0 11.0 0.00 0.00 0.00 70 1018.3
20260510082818 57 16 4.0 9.0 0.00 0.00 0.00 71 1018.1
20260510081814 57 6 5.0 9.0 0.00 0.00 0.00 71 1017.9
20260510080812 57 9 5.0 11.0 0.00 0.00 0.00 70 1018.2
20260510075810 57 343 3.0 12.0 0.00 0.00 0.00 70 1018.1
20260510074810 58 1 3.0 10.0 0.00 0.00 0.00 68 1018.1
20260510073809 59 25 5.0 11.0 0.00 0.00 0.00 67 1017.8
20260510072807 59 8 6.0 8.0 0.00 0.00 0.00 67 1017.8
20260510071806 59 4 5.0 9.0 0.00 0.00 0.00 68 1017.8
20260510070802 60 6 4.0 8.0 0.00 0.00 0.00 67 1017.8
20260510065758 61 25 4.0 8.0 0.00 0.00 0.00 63 1017.5
20260510064758 61 11 5.0 7.0 0.00 0.00 0.00 64 1017.0
20260510063757 60 337 2.0 6.0 0.00 0.00 0.00 65 1016.9
20260510062756 60 7 3.0 8.0 0.00 0.00 0.00 65 1016.9
20260510061753 61 350 0.0 7.0 0.00 0.00 0.00 64 1016.8
20260510060752 61 40 4.0 7.0 0.00 0.00 0.00 62 1016.6
20260510055752 62 348 2.0 6.0 0.00 0.00 0.00 61 1016.4
20260510054749 63 47 6.0 12.0 0.00 0.00 0.00 59 1016.1
20260510053745 64 47 2.0 12.0 0.00 0.00 0.00 58 1016.0
20260510052743 64 80 4.0 11.0 0.00 0.00 0.00 58 1016.3
20260510051742 64 97 5.0 8.0 0.00 0.00 0.00 60 1016.3
20260510050741 64 59 2.0 7.0 0.00 0.00 0.00 59 1015.8
20260510045741 64 75 5.0 8.0 0.00 0.00 0.00 59 1015.5
20260510044740 65 81 0.0 9.0 0.00 0.00 0.00 57 1015.5
20260510043739 65 91 7.0 9.0 0.00 0.00 0.00 57 1015.6
20260510042734 65 86 4.0 6.0 0.00 0.00 0.00 57 1015.4
20260510041732 65 73 4.0 5.0 0.00 0.00 0.00 58 1015.5
20260510040733 65 52 2.0 9.0 0.00 0.00 0.00 59 1015.2
20260510035730 65 96 2.0 8.0 0.00 0.00 0.00 60 1015.1
20260510034728 64 51 3.0 5.0 0.00 0.00 0.00 62 1015.0
20260510033728 65 8 1.0 5.0 0.00 0.00 0.00 62 1015.0
20260510032728 65 87 5.0 7.0 0.00 0.00 0.00 61 1014.8
20260510031725 65 114 3.0 6.0 0.00 0.00 0.00 62 1014.7
20260510030720 65 42 0.0 4.0 0.00 0.00 0.00 62 1014.7
20260510025716 66 43 4.0 6.0 0.00 0.00 0.00 60 1014.5
20260510024716 65 26 0.0 3.0 0.00 0.00 0.00 61 1013.8
20260510023714 65 80 3.0 4.0 0.00 0.00 0.00 61 1013.8
20260510022713 66 69 4.0 6.0 0.00 0.00 0.00 61 1013.1
20260510021709 66 103 2.0 5.0 0.00 0.00 0.00 61 1013.0
20260510020707 67 79 1.0 8.0 0.00 0.00 0.00 59 1012.6
20260510015704 68 27 3.0 8.0 0.00 0.00 0.00 57 1012.2
20260510014701 68 65 11.0 11.0 0.00 0.00 0.00 56 1012.2
20260510013659 68 109 3.0 11.0 0.00 0.00 0.00 56 1012.2
20260510012655 69 345 9.0 14.0 0.00 0.00 0.00 57 1013.7
20260510011652 70 70 3.0 17.0 0.00 0.00 0.00 55 1013.8
20260510010650 73 335 5.0 22.0 0.00 0.00 0.00 49 1014.2
20260510005649 74 330 5.0 9.0 0.00 0.00 0.00 45 1013.8
20260510004644 75 350 8.0 8.0 0.00 0.00 0.00 38 1012.8
20260510003639 76 25 6.0 10.0 0.00 0.00 0.00 36 1012.0
20260510002635 76 64 3.0 8.0 0.00 0.00 0.00 35 1010.9
20260510001634 77 116 2.0 7.0 0.00 0.00 0.00 36 1010.3
20260510000633 78 73 1.0 7.0 0.00 0.00 0.00 35 1010.2
20260509235632 78 82 2.0 9.0 0.00 0.00 0.00 35 1009.8
20260509234631 79 84 3.0 10.0 0.00 0.00 0.00 34 1009.8
20260509233626 81 50 2.0 3.0 0.00 0.00 0.00 29 1010.0
20260509232625 82 15 1.0 3.0 0.00 0.00 0.00 30 1010.3
20260509231625 82 140 2.0 3.0 0.00 0.00 0.00 24 1010.0
20260509230625 82 254 5.0 9.0 0.00 0.00 0.00 24 1010.2
20260509225623 83 286 6.0 8.0 0.00 0.00 0.00 25 1010.2
20260509224620 82 356 2.0 9.0 0.00 0.00 0.00 26 1010.6
20260509223620 82 186 0.0 3.0 0.00 0.00 0.00 27 1010.5
20260509222620 83 142 1.0 6.0 0.00 0.00 0.00 25 1010.2
20260509221618 83 203 2.0 5.0 0.00 0.00 0.00 25 1010.3
20260509220616 83 164 2.0 4.0 0.00 0.00 0.00 26 1010.0
20260509215614 84 181 2.0 4.0 0.00 0.00 0.00 25 1010.0
20260509214614 84 121 2.0 5.0 0.00 0.00 0.00 25 1010.0
20260509213613 86 169 3.0 7.0 0.00 0.00 0.00 24 1010.1
20260509212613 86 51 4.0 5.0 0.00 0.00 0.00 23 1010.1
20260509211611 84 69 1.0 3.0 0.00 0.00 0.00 25 1010.2
20260509210610 84 347 1.0 4.0 0.00 0.00 0.00 23 1010.3
20260509205608 85 125 2.0 7.0 0.00 0.00 0.00 23 1010.5
20260509204605 87 3 7.0 8.0 0.00 0.00 0.00 22 1010.5
20260509203604 87 263 5.0 6.0 0.00 0.00 0.00 22 1010.7
20260509202602 86 254 7.0 12.0 0.00 0.00 0.00 21 1010.7
20260509201558 86 58 2.0 7.0 0.00 0.00 0.00 21 1010.8
20260509200556 86 209 4.0 11.0 0.00 0.00 0.00 22 1011.1
20260509195554 86 229 9.0 10.0 0.00 0.00 0.00 22 1010.9
20260509194549 85 174 3.0 14.0 0.00 0.00 0.00 23 1011.0
20260509193548 85 197 2.0 8.0 0.00 0.00 0.00 24 1011.2
20260509192547 85 220 4.0 9.0 0.00 0.00 0.00 24 1011.4
20260509191542 85 251 7.0 12.0 0.00 0.00 0.00 26 1011.2
20260509190541 85 305 4.0 9.0 0.00 0.00 0.00 27 1011.4
20260509185537 85 218 6.0 9.0 0.00 0.00 0.00 25 1011.7
20260509184531 84 235 2.0 9.0 0.00 0.00 0.00 26 1011.4
20260509183528 85 230 6.0 15.0 0.00 0.00 0.00 24 1011.8
20260509182527 84 232 7.0 17.0 0.00 0.00 0.00 26 1012.0
20260509181522 84 239 14.0 19.0 0.00 0.00 0.00 25 1011.9
20260509180520 84 252 6.0 17.0 0.00 0.00 0.00 25 1012.1
20260509175519 83 236 9.0 16.0 0.00 0.00 0.00 25 1012.2
20260509174519 82 247 8.0 15.0 0.00 0.00 0.00 29 1012.4
20260509173514 83 246 8.0 17.0 0.00 0.00 0.00 28 1012.6
20260509172514 81 250 5.0 10.0 0.00 0.00 0.00 32 1012.8
20260509171512 81 226 9.0 13.0 0.00 0.00 0.00 32 1012.9
20260509170510 81 235 11.0 16.0 0.00 0.00 0.00 32 1013.2
20260509165510 81 227 8.0 13.0 0.00 0.00 0.00 36 1013.1
20260509164508 77 241 11.0 14.0 0.00 0.00 0.00 38 1013.1
20260509163508 78 234 6.0 15.0 0.00 0.00 0.00 36 1012.9
20260509162506 77 249 11.0 16.0 0.00 0.00 0.00 38 1013.5
20260509161504 77 224 13.0 19.0 0.00 0.00 0.00 37 1013.4
20260509160501 77 231 17.0 17.0 0.00 0.00 0.00 35 1013.3
20260509155458 77 261 12.0 15.0 0.00 0.00 0.00 37 1013.0